User: anonymous
Location: The Jewett Observatory
(46.7288°N, 117.1525°W)
Time: 14:34:32
(UTC-07:00)
Language:

Cosmos 1633 - Orbit

View from above orbital plane
View from above orbital plane
View from above satellite
View from above satellite

Ground track
Ground track

The orbit data is extracted from the following two-line orbital elements,

1 15592U 85020A   14294.43674351  .00010442  00000-0  48166-3 0  5827
2 15592 082.5438 206.5124 0017035 359.4797 052.4119 15.19985364616459
Epoch (UTC): 21 October 2014 10:28:54
Eccentricity: 0.0017035
inclination: 82.5438°
perigee height: 494 km
apogee height: 517 km
right ascension of ascending node: 206.5124°
argument of perigee: 359.4797°
revolutions per day: 15.19985364
mean anomaly at epoch: 52.4119°
orbit number at epoch: 61645

The dashed part of the orbit path shows where the satellite is in the earth's shadow,  

DLR